Language selection

Weather shortcuts

Explorer - northwestern half: Past 24 Hour Conditions

 

Sandspit Airport

10:00 PM PDT 17 May 2024
Disclaimer

This table is a summary of hourly weather conditions for the past 24 hours.
Please note that these observations might not always be representative of weather conditions over their associated marine area.

Date / Time
(PDT)
Wind(knots) Conditions Visibility(km) Pressure(kPa) Air tempC) Relative humidity(%) Dew pointC)
17 May 2024
22:00 WSW 9 Clear 16 102.0 8 77 4
21:00 WSW 9 Sunny 16 102.0 8 74 4
20:00 WSW 12 Sunny 16 102.0 9 72 4
19:00 W 12 Mainly Sunny 16 102.0 9 71 4
18:00 W 15 Light Rain 16 102.0 9 72 4
17:00 W 11 Partly Cloudy 16 102.1 9 68 4
16:00 WSW 13 gusts 18 Mostly Cloudy 16 102.1 10 61 3
15:00 WNW 11 gusts 19 Mostly Cloudy 16 102.1 10 71 5
14:00 W 12 Light Rain 16 102.1 9 71 4
13:00 W 14 Mostly Cloudy 16 102.1 10 71 5
12:00 W 9 Cloudy 16 102.1 10 69 4
11:00 W 6 Mostly Cloudy 16 102.1 8 70 3
10:00 WNW 9 Cloudy 16 102.1 8 70 3
9:00 WSW 9 Cloudy 16 102.1 8 71 3
8:00 WNW 13 Cloudy 16 102.1 8 70 3
7:00 W 10 Cloudy 16 102.1 8 75 4
6:00 WNW 11 Cloudy 16 102.1 8 71 3
5:00 WNW 12 Cloudy 16 102.0 8 69 3
4:00 WNW 14 gusts 20 Mostly Cloudy 16 102.0 8 68 2
3:00 WNW 13 gusts 18 Cloudy 16 102.0 8 69 3
2:00 W 14 gusts 19 Cloudy 16 102.0 8 71 3
1:00 WNW 15 Mostly Cloudy 16 101.9 8 71 3
0:00 W 12 Cloudy 16 101.9 9 70 4
16 May 2024
23:00 WNW 12 gusts 19 Cloudy 16 101.9 9 68 4
22:00 WNW 18 Cloudy 16 101.8 9 69 4

Zoom-in to make a selection

Map of Pacific - North Coast marine weather areas Middle Nomad - 46004 South Nomad - 46036 Dixon Entrance Central - 46145 South Moresby - 46147 Nanakwa Shoal - 46181 North Hecate Strait - 46183 North Nomad - 46184 South Hecate Strait - 46185 West Sea Otter - 46204 West Dixon Entrance - 46205 East Dellwood - 46207 West Moresby - 46208 Sartine Island Cape St.James Kindakun Rocks Langara Island Masset Municipal Airport Rose Spit Sandspit Airport Bella Bella Airport Bella Coola Airport Bonilla Island Cathedral Point Cumshewa Island Grey Islet Holland Rock Lucy Islands Lightstation Prince Rupert Airport
Legend:
buoy Buoy
land station Land Station

Pacific - North Coast Area

Another Region

Date modified: